Terug naar catalogus

COSMOS 2251 DEB

ActiefLEO
NORAD 34314·DEBRIS·🇷🇺 Russia

Gelanceerd Jun 16, 1993 vanaf Plesetsk Cosmodrome

Loading…

Volgende Passages (komende 24 uur)

TLE

VersSource: Space-Track

Epoch: Sep 14, 2026, 14:24 UTC

1 34314U 93036NL  26257.60026437  .00000606  00000-0  29252-3 0  9991
2 34314  74.0062 175.8310 0105146 219.7089 196.4822 14.17950594905678

Volg COSMOS 2251 DEB in realtime met AllMySat

Download on the App Store